カタログに戻る

STARLINK-11475

運用中通信VLEO
NORAD 62226·PAYLOAD·🇺🇸 United States

打ち上げ Dec 5, 2024 から Vandenberg Space Force Base

Loading…

次のパス (今後24時間)

TLE

最新Source: CelesTrak SupGP

元期: Sep 14, 2026, 22:46 UTC

1 62226C 24231J   26257.94909722  .00047683  00000+0  39267-3 0  2578
2 62226  53.1575 248.1210 0001159  88.2070 105.4433 15.69692507    16

AllMySatでSTARLINK-11475をリアルタイム追跡

Download on the App Store